This is the latest recevied weather packets stored in our database for station/object K2CCS. If no packets are shown the sender has not sent any weather packets the latest 10 day(s).
| Time | Temp. | Humidity | Pressure | Rain* | Wind** | Luminosity | Snow |
|---|---|---|---|---|---|---|---|
| 1777815993 | 8.89° C | 56% | 1015 hPa | 0 mm | - | 227 W/m² | - |
| 1777815690 | 8.33° C | 57% | 1015 hPa | 0 mm | - | 221 W/m² | - |
| 1777815387 | 8.33° C | 59% | 1015.1 hPa | 0 mm | - | 217 W/m² | - |
| 1777815084 | 7.78° C | 59% | 1015.2 hPa | 0 mm | - | 205 W/m² | - |
| 1777814780 | 7.78° C | 59% | 1015 hPa | 0 mm | - | 188 W/m² | - |
| 1777814477 | 7.78° C | 59% | 1015.1 hPa | 0 mm | - | 183 W/m² | - |
| 1777814174 | 7.78° C | 61% | 1015.2 hPa | 0 mm | - | 171 W/m² | - |
| 1777813871 | 7.78° C | 60% | 1015.3 hPa | 0 mm | - | 165 W/m² | - |
| 1777813569 | 7.78° C | 61% | 1015.1 hPa | 0 mm | - | 156 W/m² | - |
| 1777813266 | 7.78° C | 62% | 1015.2 hPa | 0 mm | - | 147 W/m² | - |
| 1777812963 | 7.22° C | 63% | 1015.2 hPa | 0 mm | - | 138 W/m² | - |
| 1777812661 | 7.22° C | 62% | 1015.2 hPa | 0 mm | - | 134 W/m² | - |
| 1777812357 | 7.22° C | 63% | 1015.1 hPa | 0 mm | - | 132 W/m² | - |
| 1777812056 | 7.22° C | 64% | 1015.1 hPa | 0 mm | - | 127 W/m² | - |
| 1777811754 | 7.22° C | 64% | 1015.1 hPa | 0 mm | - | 117 W/m² | - |
| 1777811450 | 7.22° C | 65% | 1015.1 hPa | 0 mm | - | 112 W/m² | - |
| 1777811146 | 7.22° C | 65% | 1015.2 hPa | 0 mm | - | 109 W/m² | - |
| 1777810844 | 7.22° C | 64% | 1015.2 hPa | 0 mm | - | 117 W/m² | - |
| 1777810540 | 7.22° C | 64% | 1015.2 hPa | 0 mm | - | 118 W/m² | - |
| 1777810237 | 7.22° C | 64% | 1015.1 hPa | 0 mm | - | 113 W/m² | - |
| 1777809933 | 7.22° C | 65% | 1015 hPa | 0 mm | - | 109 W/m² | - |
| 1777809632 | 7.22° C | 64% | 1015 hPa | 0 mm | - | 101 W/m² | - |
| 1777809329 | 6.67° C | 65% | 1015.2 hPa | 0 mm | - | 98 W/m² | - |
| 1777809026 | 6.67° C | 65% | 1015.2 hPa | 0 mm | - | 92 W/m² | - |
| 1777808723 | 6.67° C | 67% | 1015 hPa | 0 mm | - | 85 W/m² | - |
* Rain latest hour (hover to see other rain measurements)
** Current wind speed in m/s (hover to see current wind gust speed)